Year,Month,Day,Hour,Minute,Value (Times are PST for temperature in C)
2018,06,20,00,00,16.80
2018,06,20,00,01,16.80
2018,06,20,00,02,16.70
2018,06,20,00,03,16.70
2018,06,20,00,04,16.70
2018,06,20,00,05,16.70
2018,06,20,00,06,16.70
2018,06,20,00,07,16.60
2018,06,20,00,08,16.60
2018,06,20,00,09,16.60
2018,06,20,00,10,16.60
2018,06,20,00,11,16.60
2018,06,20,00,12,16.50
2018,06,20,00,13,16.50
2018,06,20,00,14,16.50
2018,06,20,00,15,16.50
2018,06,20,00,16,16.40
2018,06,20,00,17,16.40
2018,06,20,00,18,16.40
2018,06,20,00,19,16.40
2018,06,20,00,20,16.40
2018,06,20,00,21,16.30
2018,06,20,00,22,16.30
2018,06,20,00,23,16.30
2018,06,20,00,24,16.30
2018,06,20,00,25,16.30
2018,06,20,00,26,16.30
2018,06,20,00,27,16.20
2018,06,20,00,28,16.20
2018,06,20,00,29,16.20
2018,06,20,00,30,16.20
2018,06,20,00,31,16.20
2018,06,20,00,32,16.10
2018,06,20,00,33,16.10
2018,06,20,00,34,16.10
2018,06,20,00,35,16.10
2018,06,20,00,36,16.10
2018,06,20,00,37,16.10
2018,06,20,00,38,16.10
2018,06,20,00,39,16.00
2018,06,20,00,40,16.00
2018,06,20,00,41,16.00
2018,06,20,00,42,15.90
2018,06,20,00,43,15.90
2018,06,20,00,44,15.90
2018,06,20,00,45,15.90
2018,06,20,00,46,15.90
2018,06,20,00,47,15.90
2018,06,20,00,48,15.90
2018,06,20,00,49,15.80
2018,06,20,00,50,15.80
2018,06,20,00,51,15.80
2018,06,20,00,52,15.80
2018,06,20,00,53,15.80
2018,06,20,00,54,15.80
2018,06,20,00,55,15.80
2018,06,20,00,56,15.80
2018,06,20,00,57,15.70
2018,06,20,00,58,15.70
2018,06,20,00,59,15.70
2018,06,20,01,00,15.70
2018,06,20,01,01,15.70
2018,06,20,01,02,15.70
2018,06,20,01,03,15.70
2018,06,20,01,04,15.60
2018,06,20,01,05,15.60
2018,06,20,01,06,15.60
2018,06,20,01,07,15.60
2018,06,20,01,08,15.60
2018,06,20,01,09,15.60
2018,06,20,01,10,15.60
2018,06,20,01,11,15.50
2018,06,20,01,12,15.50
2018,06,20,01,13,15.40
2018,06,20,01,14,15.40
2018,06,20,01,15,15.40
2018,06,20,01,16,15.40
2018,06,20,01,17,15.40
2018,06,20,01,18,15.30
2018,06,20,01,19,15.30
2018,06,20,01,20,15.30
2018,06,20,01,21,15.30
2018,06,20,01,22,15.30
2018,06,20,01,23,15.30
2018,06,20,01,24,15.30
2018,06,20,01,25,15.30
2018,06,20,01,26,15.20
2018,06,20,01,27,15.20
2018,06,20,01,28,15.20
2018,06,20,01,29,15.20
2018,06,20,01,30,15.20
2018,06,20,01,31,15.20
2018,06,20,01,32,15.20
2018,06,20,01,33,15.20
2018,06,20,01,34,15.20
2018,06,20,01,35,15.20
2018,06,20,01,36,15.20
2018,06,20,01,37,15.20
2018,06,20,01,38,15.10
2018,06,20,01,39,15.10
2018,06,20,01,40,15.10
2018,06,20,01,41,15.10
2018,06,20,01,42,15.10
2018,06,20,01,43,15.10
2018,06,20,01,44,15.10
2018,06,20,01,45,15.00
2018,06,20,01,46,15.00
2018,06,20,01,47,15.00
2018,06,20,01,48,15.00
2018,06,20,01,49,14.90
2018,06,20,01,50,14.90
2018,06,20,01,51,14.90
2018,06,20,01,52,14.90
2018,06,20,01,53,14.90
2018,06,20,01,54,14.90
2018,06,20,01,55,14.80
2018,06,20,01,56,14.80
2018,06,20,01,57,14.80
2018,06,20,01,58,14.80
2018,06,20,01,59,14.80
2018,06,20,02,00,14.80
2018,06,20,02,01,14.80
2018,06,20,02,02,14.70
2018,06,20,02,03,14.70
2018,06,20,02,04,14.70
2018,06,20,02,05,14.70
2018,06,20,02,06,14.70
2018,06,20,02,07,14.70
2018,06,20,02,08,14.70
2018,06,20,02,09,14.70
2018,06,20,02,10,14.70
2018,06,20,02,11,14.60
2018,06,20,02,12,14.60
2018,06,20,02,13,14.60
2018,06,20,02,14,14.60
2018,06,20,02,15,14.60
2018,06,20,02,16,14.60
2018,06,20,02,17,14.60
2018,06,20,02,18,14.60
2018,06,20,02,19,14.60
2018,06,20,02,20,14.60
2018,06,20,02,21,14.60
2018,06,20,02,22,14.60
2018,06,20,02,23,14.50
2018,06,20,02,24,14.50
2018,06,20,02,25,14.50
2018,06,20,02,26,14.50
2018,06,20,02,27,14.50
2018,06,20,02,28,14.40
2018,06,20,02,29,14.40
2018,06,20,02,30,14.40
2018,06,20,02,31,14.40
2018,06,20,02,32,14.40
2018,06,20,02,33,14.40
2018,06,20,02,34,14.40
2018,06,20,02,35,14.30
2018,06,20,02,36,14.30
2018,06,20,02,37,14.30
2018,06,20,02,38,14.30
2018,06,20,02,39,14.30
2018,06,20,02,40,14.30
2018,06,20,02,41,14.30
2018,06,20,02,42,14.30
2018,06,20,02,43,14.30
2018,06,20,02,44,14.30
2018,06,20,02,45,14.30
2018,06,20,02,46,14.30
2018,06,20,02,47,14.30
2018,06,20,02,48,14.30
2018,06,20,02,49,14.30
2018,06,20,02,50,14.30
2018,06,20,02,51,14.30
2018,06,20,02,52,14.20
2018,06,20,02,53,14.20
2018,06,20,02,54,14.20
2018,06,20,02,55,14.20
2018,06,20,02,56,14.20
2018,06,20,02,57,14.20
2018,06,20,02,58,14.20
2018,06,20,02,59,14.20
2018,06,20,03,00,14.20
2018,06,20,03,01,14.20
2018,06,20,03,02,14.20
2018,06,20,03,03,14.20
2018,06,20,03,04,14.10
2018,06,20,03,05,14.10
2018,06,20,03,06,14.10
2018,06,20,03,07,14.10
2018,06,20,03,08,14.10
2018,06,20,03,09,14.10
2018,06,20,03,10,14.10
2018,06,20,03,11,14.10
2018,06,20,03,12,14.00
2018,06,20,03,13,14.00
2018,06,20,03,14,14.00
2018,06,20,03,15,14.00
2018,06,20,03,16,14.00
2018,06,20,03,17,14.00
2018,06,20,03,18,13.90
2018,06,20,03,19,13.90
2018,06,20,03,20,13.90
2018,06,20,03,21,13.90
2018,06,20,03,22,13.90
2018,06,20,03,23,13.90
2018,06,20,03,24,13.90
2018,06,20,03,25,13.90
2018,06,20,03,26,13.90
2018,06,20,03,27,13.90
2018,06,20,03,28,13.90
2018,06,20,03,29,13.90
2018,06,20,03,30,13.80
2018,06,20,03,31,13.80
2018,06,20,03,32,13.80
2018,06,20,03,33,13.80
2018,06,20,03,34,13.80
2018,06,20,03,35,13.80
2018,06,20,03,36,13.80
2018,06,20,03,37,13.80
2018,06,20,03,38,13.80
2018,06,20,03,39,13.80
2018,06,20,03,40,13.80
2018,06,20,03,41,13.80
2018,06,20,03,42,13.70
2018,06,20,03,43,13.70
2018,06,20,03,44,13.70
2018,06,20,03,45,13.70
2018,06,20,03,46,13.70
2018,06,20,03,47,13.70
2018,06,20,03,48,13.70
2018,06,20,03,49,13.70
2018,06,20,03,50,13.70
2018,06,20,03,51,13.70
2018,06,20,03,52,13.70
2018,06,20,03,53,13.70
2018,06,20,03,54,13.70
2018,06,20,03,55,13.70
2018,06,20,03,56,13.70
2018,06,20,03,57,13.60
2018,06,20,03,58,13.60
2018,06,20,03,59,13.60
2018,06,20,04,00,13.60
2018,06,20,04,01,13.60
2018,06,20,04,02,13.60
2018,06,20,04,03,13.60
2018,06,20,04,04,13.60
2018,06,20,04,05,13.60
2018,06,20,04,06,13.50
2018,06,20,04,07,13.50
2018,06,20,04,08,13.50
2018,06,20,04,09,13.50
2018,06,20,04,10,13.50
2018,06,20,04,11,13.40
2018,06,20,04,12,13.40
2018,06,20,04,13,13.40
2018,06,20,04,14,13.40
2018,06,20,04,15,13.40
2018,06,20,04,16,13.40
2018,06,20,04,17,13.40
2018,06,20,04,18,13.30
2018,06,20,04,19,13.30
2018,06,20,04,20,13.30
2018,06,20,04,21,13.30
2018,06,20,04,22,13.30
2018,06,20,04,23,13.30
2018,06,20,04,24,13.30
2018,06,20,04,25,13.30
2018,06,20,04,26,13.30
2018,06,20,04,27,13.30
2018,06,20,04,28,13.30
2018,06,20,04,29,13.20
2018,06,20,04,30,13.20
2018,06,20,04,31,13.20
2018,06,20,04,32,13.20
2018,06,20,04,33,13.20
2018,06,20,04,34,13.20
2018,06,20,04,35,13.20
2018,06,20,04,36,13.20
2018,06,20,04,37,13.20
2018,06,20,04,38,13.20
2018,06,20,04,39,13.20
2018,06,20,04,40,13.20
2018,06,20,04,41,13.20
2018,06,20,04,42,13.20
2018,06,20,04,43,13.20
2018,06,20,04,44,13.20
2018,06,20,04,45,13.20
2018,06,20,04,46,13.20
2018,06,20,04,47,13.20
2018,06,20,04,48,13.20
2018,06,20,04,49,13.20
2018,06,20,04,50,13.20
2018,06,20,04,51,13.20
2018,06,20,04,52,13.20
2018,06,20,04,53,13.20
2018,06,20,04,54,13.20
2018,06,20,04,55,13.20
2018,06,20,04,56,13.20
2018,06,20,04,57,13.20
2018,06,20,04,58,13.20
2018,06,20,04,59,13.20
2018,06,20,05,00,13.20
2018,06,20,05,01,13.20
2018,06,20,05,02,13.20
2018,06,20,05,03,13.20
2018,06,20,05,04,13.20
2018,06,20,05,05,13.20
2018,06,20,05,06,13.20
2018,06,20,05,07,13.20
2018,06,20,05,08,13.20
2018,06,20,05,09,13.20
2018,06,20,05,10,13.20
2018,06,20,05,11,13.20
2018,06,20,05,12,13.20
2018,06,20,05,13,13.20
2018,06,20,05,14,13.20
2018,06,20,05,15,13.20
2018,06,20,05,16,13.20
2018,06,20,05,17,13.20
2018,06,20,05,18,13.20
2018,06,20,05,19,13.20
2018,06,20,05,20,13.20
2018,06,20,05,21,13.20
2018,06,20,05,22,13.20
2018,06,20,05,23,13.20
2018,06,20,05,24,13.20
2018,06,20,05,25,13.20
2018,06,20,05,26,13.20
2018,06,20,05,27,13.20
2018,06,20,05,28,13.20
2018,06,20,05,29,13.20
2018,06,20,05,30,13.20
2018,06,20,05,31,13.20
2018,06,20,05,32,13.20
2018,06,20,05,33,13.20
2018,06,20,05,34,13.20
2018,06,20,05,35,13.20
2018,06,20,05,36,13.20
2018,06,20,05,37,13.30
2018,06,20,05,38,13.30
2018,06,20,05,39,13.30
2018,06,20,05,40,13.30
2018,06,20,05,41,13.30
2018,06,20,05,42,13.30
2018,06,20,05,43,13.30
2018,06,20,05,44,13.40
2018,06,20,05,45,13.40
2018,06,20,05,46,13.40
2018,06,20,05,47,13.40
2018,06,20,05,48,13.40
2018,06,20,05,49,13.50
2018,06,20,05,50,13.50
2018,06,20,05,51,13.50
2018,06,20,05,52,13.60
2018,06,20,05,53,13.60
2018,06,20,05,54,13.60
2018,06,20,05,55,13.60
2018,06,20,05,56,13.60
2018,06,20,05,57,13.70
2018,06,20,05,58,13.70
2018,06,20,05,59,13.70
2018,06,20,06,00,13.70
2018,06,20,06,01,13.70
2018,06,20,06,02,13.70
2018,06,20,06,03,13.70
2018,06,20,06,04,13.80
2018,06,20,06,05,13.80
2018,06,20,06,06,13.80
2018,06,20,06,07,13.90
2018,06,20,06,08,13.90
2018,06,20,06,09,13.90
2018,06,20,06,10,14.00
2018,06,20,06,11,14.00
2018,06,20,06,12,14.10
2018,06,20,06,13,14.10
2018,06,20,06,14,14.10
2018,06,20,06,15,14.10
2018,06,20,06,16,14.20
2018,06,20,06,17,14.20
2018,06,20,06,18,14.20
2018,06,20,06,19,14.20
2018,06,20,06,20,14.30
2018,06,20,06,21,14.30
2018,06,20,06,22,14.30
2018,06,20,06,23,14.30
2018,06,20,06,24,14.40
2018,06,20,06,25,14.40
2018,06,20,06,26,14.40
2018,06,20,06,27,14.50
2018,06,20,06,28,14.50
2018,06,20,06,29,14.60
2018,06,20,06,30,14.60
2018,06,20,06,31,14.60
2018,06,20,06,32,14.60
2018,06,20,06,33,14.70
2018,06,20,06,34,14.70
2018,06,20,06,35,14.70
2018,06,20,06,36,14.70
2018,06,20,06,37,14.80
2018,06,20,06,38,14.80
2018,06,20,06,39,14.80
2018,06,20,06,40,14.90
2018,06,20,06,41,14.90
2018,06,20,06,42,14.90
2018,06,20,06,43,14.90
2018,06,20,06,44,14.90
2018,06,20,06,45,15.00
2018,06,20,06,46,15.00
2018,06,20,06,47,15.10
2018,06,20,06,48,15.10
2018,06,20,06,49,15.10
2018,06,20,06,50,15.20
2018,06,20,06,51,15.20
2018,06,20,06,52,15.20
2018,06,20,06,53,15.30
2018,06,20,06,54,15.30
2018,06,20,06,55,15.30
2018,06,20,06,56,15.40
2018,06,20,06,57,15.40
2018,06,20,06,58,15.40
2018,06,20,06,59,15.40
2018,06,20,07,00,15.50
2018,06,20,07,01,15.50
2018,06,20,07,02,15.50
2018,06,20,07,03,15.60
2018,06,20,07,04,15.60
2018,06,20,07,05,15.60
2018,06,20,07,06,15.60
2018,06,20,07,07,15.60
2018,06,20,07,08,15.60
2018,06,20,07,09,15.70
2018,06,20,07,10,15.70
2018,06,20,07,11,15.70
2018,06,20,07,12,15.70
2018,06,20,07,13,15.70
2018,06,20,07,14,15.70
2018,06,20,07,15,15.80
2018,06,20,07,16,15.80
2018,06,20,07,17,15.80
2018,06,20,07,18,15.80
2018,06,20,07,19,15.80
2018,06,20,07,20,15.80
2018,06,20,07,21,15.80
2018,06,20,07,22,15.90
2018,06,20,07,23,15.90
2018,06,20,07,24,15.90
2018,06,20,07,25,15.90
2018,06,20,07,26,15.90
2018,06,20,07,27,16.00
2018,06,20,07,28,16.00
2018,06,20,07,29,16.00
2018,06,20,07,30,16.10
2018,06,20,07,31,16.10
2018,06,20,07,32,16.10
2018,06,20,07,33,16.10
2018,06,20,07,34,16.10
2018,06,20,07,35,16.10
2018,06,20,07,36,16.20
2018,06,20,07,37,16.20
2018,06,20,07,38,16.20
2018,06,20,07,39,16.20
2018,06,20,07,40,16.20
2018,06,20,07,41,16.20
2018,06,20,07,42,16.20
2018,06,20,07,43,16.20
2018,06,20,07,44,16.20
2018,06,20,07,45,16.30
2018,06,20,07,46,16.30
2018,06,20,07,47,16.30
2018,06,20,07,48,16.30
2018,06,20,07,49,16.30
2018,06,20,07,50,16.30
2018,06,20,07,51,16.30
2018,06,20,07,52,16.30
2018,06,20,07,53,16.30
2018,06,20,07,54,16.30
2018,06,20,07,55,16.30
2018,06,20,07,56,16.40
2018,06,20,07,57,16.40
2018,06,20,07,58,16.40
2018,06,20,07,59,16.40
2018,06,20,08,00,16.40
2018,06,20,08,01,16.40
2018,06,20,08,02,16.40
2018,06,20,08,03,16.40
2018,06,20,08,04,16.40
2018,06,20,08,05,16.40
2018,06,20,08,06,16.40
2018,06,20,08,07,16.40
2018,06,20,08,08,16.50
2018,06,20,08,09,16.50
2018,06,20,08,10,16.50
2018,06,20,08,11,16.50
2018,06,20,08,12,16.60
2018,06,20,08,13,16.60
2018,06,20,08,14,16.60
2018,06,20,08,15,16.60
2018,06,20,08,16,16.70
2018,06,20,08,17,16.70
2018,06,20,08,18,16.70
2018,06,20,08,19,16.70
2018,06,20,08,20,16.80
2018,06,20,08,21,16.80
2018,06,20,08,22,16.80
2018,06,20,08,23,16.90
2018,06,20,08,24,16.90
2018,06,20,08,25,16.90
2018,06,20,08,26,17.00
2018,06,20,08,27,17.10
2018,06,20,08,28,17.10
2018,06,20,08,29,17.20
2018,06,20,08,30,17.20
2018,06,20,08,31,17.30
2018,06,20,08,32,17.30
2018,06,20,08,33,17.30
2018,06,20,08,34,17.40
2018,06,20,08,35,17.40
2018,06,20,08,36,17.50
2018,06,20,08,37,17.60
2018,06,20,08,38,17.70
2018,06,20,08,39,17.70
2018,06,20,08,40,17.80
2018,06,20,08,41,17.90
2018,06,20,08,42,18.00
2018,06,20,08,43,18.10
2018,06,20,08,44,18.20
2018,06,20,08,45,18.30
2018,06,20,08,46,18.40
2018,06,20,08,47,18.50
2018,06,20,08,48,18.50
2018,06,20,08,49,18.60
2018,06,20,08,50,18.60
2018,06,20,08,51,18.70
2018,06,20,08,52,18.70
2018,06,20,08,53,18.80
2018,06,20,08,54,18.80
2018,06,20,08,55,18.90
2018,06,20,08,56,18.90
2018,06,20,08,57,19.00
2018,06,20,08,58,19.00
2018,06,20,08,59,19.10
2018,06,20,09,00,19.10
2018,06,20,09,01,19.20
2018,06,20,09,02,19.30
2018,06,20,09,03,19.30
2018,06,20,09,04,19.40
2018,06,20,09,05,19.50
2018,06,20,09,06,19.50
2018,06,20,09,07,19.60
2018,06,20,09,08,19.70
2018,06,20,09,09,19.80
2018,06,20,09,10,19.90
2018,06,20,09,11,20.00
2018,06,20,09,12,20.10
2018,06,20,09,13,20.20
2018,06,20,09,14,20.30
2018,06,20,09,15,20.40
2018,06,20,09,16,20.40
2018,06,20,09,17,20.50
2018,06,20,09,18,20.60
2018,06,20,09,19,20.70
2018,06,20,09,20,20.80
2018,06,20,09,21,20.90
2018,06,20,09,22,21.00
2018,06,20,09,23,21.00
2018,06,20,09,24,21.10
2018,06,20,09,25,21.20
2018,06,20,09,26,21.20
2018,06,20,09,27,21.30
2018,06,20,09,28,21.30
2018,06,20,09,29,21.40
2018,06,20,09,30,21.50
2018,06,20,09,31,21.60
2018,06,20,09,32,21.70
2018,06,20,09,33,21.70
2018,06,20,09,34,21.80
2018,06,20,09,35,21.80
2018,06,20,09,36,21.90
2018,06,20,09,37,21.90
2018,06,20,09,38,21.90
2018,06,20,09,39,21.90
2018,06,20,09,40,21.90
2018,06,20,09,41,21.90
2018,06,20,09,42,21.90
2018,06,20,09,43,21.90
2018,06,20,09,44,21.90
2018,06,20,09,45,22.00
2018,06,20,09,46,22.00
2018,06,20,09,47,22.00
2018,06,20,09,48,22.10
2018,06,20,09,49,22.10
2018,06,20,09,50,22.10
2018,06,20,09,51,22.20
2018,06,20,09,52,22.20
2018,06,20,09,53,22.20
2018,06,20,09,54,22.20
2018,06,20,09,55,22.20
2018,06,20,09,56,22.20
2018,06,20,09,57,22.20
2018,06,20,09,58,22.30
2018,06,20,09,59,22.30
2018,06,20,10,00,22.30
2018,06,20,10,01,22.40
2018,06,20,10,02,22.40
2018,06,20,10,03,22.50
2018,06,20,10,04,22.50
2018,06,20,10,05,22.60
2018,06,20,10,06,22.60
2018,06,20,10,07,22.70
2018,06,20,10,08,22.70
2018,06,20,10,09,22.80
2018,06,20,10,10,22.80
2018,06,20,10,11,22.80
2018,06,20,10,12,22.80
2018,06,20,10,13,22.80
2018,06,20,10,14,22.80
2018,06,20,10,15,22.80
2018,06,20,10,16,22.90
2018,06,20,10,17,22.90
2018,06,20,10,18,23.00
2018,06,20,10,19,23.10
2018,06,20,10,20,23.20
2018,06,20,10,21,23.30
2018,06,20,10,22,23.50
2018,06,20,10,23,23.60
2018,06,20,10,24,23.70
2018,06,20,10,25,23.70
2018,06,20,10,26,23.80
2018,06,20,10,27,23.90
2018,06,20,10,28,23.90
2018,06,20,10,29,24.00
2018,06,20,10,30,24.10
2018,06,20,10,31,24.10
2018,06,20,10,32,24.20
2018,06,20,10,33,24.20
2018,06,20,10,34,24.30
2018,06,20,10,35,24.30
2018,06,20,10,36,24.20
2018,06,20,10,37,24.20
2018,06,20,10,38,24.20
2018,06,20,10,39,24.20
2018,06,20,10,40,24.20
2018,06,20,10,41,24.20
2018,06,20,10,42,24.30
2018,06,20,10,43,24.40
2018,06,20,10,44,24.40
2018,06,20,10,45,24.50
2018,06,20,10,46,24.50
2018,06,20,10,47,24.50
2018,06,20,10,48,24.40
2018,06,20,10,49,24.40
2018,06,20,10,50,24.40
2018,06,20,10,51,24.40
2018,06,20,10,52,24.40
2018,06,20,10,53,24.30
2018,06,20,10,54,24.30
2018,06,20,10,55,24.30
2018,06,20,10,56,24.30
2018,06,20,10,57,24.30
2018,06,20,10,58,24.30
2018,06,20,10,59,24.30
2018,06,20,11,00,24.30
2018,06,20,11,01,24.30
2018,06,20,11,02,24.30
2018,06,20,11,03,24.30
2018,06,20,11,04,24.30
2018,06,20,11,05,24.30
2018,06,20,11,06,24.30
2018,06,20,11,07,24.20
2018,06,20,11,08,24.30
2018,06,20,11,09,24.30
2018,06,20,11,10,24.30
2018,06,20,11,11,24.30
2018,06,20,11,12,24.40
2018,06,20,11,13,24.50
2018,06,20,11,14,24.50
2018,06,20,11,15,24.60
2018,06,20,11,16,24.70
2018,06,20,11,17,24.70
2018,06,20,11,18,24.80
2018,06,20,11,19,24.80
2018,06,20,11,20,24.90
2018,06,20,11,21,25.00
2018,06,20,11,22,25.00
2018,06,20,11,23,25.10
2018,06,20,11,24,25.20
2018,06,20,11,25,25.20
2018,06,20,11,26,25.20
2018,06,20,11,27,25.30
2018,06,20,11,28,25.20
2018,06,20,11,29,25.20
2018,06,20,11,30,25.10
2018,06,20,11,31,25.10
2018,06,20,11,32,25.10
2018,06,20,11,33,25.10
2018,06,20,11,34,25.10
2018,06,20,11,35,25.00
2018,06,20,11,36,25.00
2018,06,20,11,37,24.90
2018,06,20,11,38,24.90
2018,06,20,11,39,24.90
2018,06,20,11,40,24.80
2018,06,20,11,41,24.80
2018,06,20,11,42,24.70
2018,06,20,11,43,24.70
2018,06,20,11,44,24.70
2018,06,20,11,45,24.70
2018,06,20,11,46,24.60
2018,06,20,11,47,24.50
2018,06,20,11,48,24.40
2018,06,20,11,49,24.20
2018,06,20,11,50,24.10
2018,06,20,11,51,24.00
2018,06,20,11,52,23.90
2018,06,20,11,53,23.80
2018,06,20,11,54,23.80
2018,06,20,11,55,23.80
2018,06,20,11,56,23.80
2018,06,20,11,57,23.90
2018,06,20,11,58,23.90
2018,06,20,11,59,23.90
2018,06,20,12,00,23.90
2018,06,20,12,01,23.90
2018,06,20,12,02,24.00
2018,06,20,12,03,24.10
2018,06,20,12,04,24.20
2018,06,20,12,05,24.20
2018,06,20,12,06,24.30
2018,06,20,12,07,24.30
2018,06,20,12,08,24.30
2018,06,20,12,09,24.40
2018,06,20,12,10,24.50
2018,06,20,12,11,24.60
2018,06,20,12,12,24.70
2018,06,20,12,13,24.80
2018,06,20,12,14,24.90
2018,06,20,12,15,25.00
2018,06,20,12,16,25.10
2018,06,20,12,17,25.10
2018,06,20,12,18,25.20
2018,06,20,12,19,25.30
2018,06,20,12,20,25.40
2018,06,20,12,21,25.70
2018,06,20,12,22,25.90
2018,06,20,12,23,26.10
2018,06,20,12,24,26.20
2018,06,20,12,25,26.30
2018,06,20,12,26,26.40
2018,06,20,12,27,26.50
2018,06,20,12,28,26.60
2018,06,20,12,29,26.70
2018,06,20,12,30,26.70
2018,06,20,12,31,26.70
2018,06,20,12,32,26.60
2018,06,20,12,33,26.60
2018,06,20,12,34,26.70
2018,06,20,12,35,26.80
2018,06,20,12,36,26.80
2018,06,20,12,37,27.00
2018,06,20,12,38,27.10
2018,06,20,12,39,27.20
2018,06,20,12,40,27.10
2018,06,20,12,41,26.80
2018,06,20,12,42,26.70
2018,06,20,12,43,26.60
2018,06,20,12,44,26.60
2018,06,20,12,45,26.60
2018,06,20,12,46,26.60
2018,06,20,12,47,26.70
2018,06,20,12,48,26.80
2018,06,20,12,49,26.90
2018,06,20,12,50,27.10
2018,06,20,12,51,27.20
2018,06,20,12,52,27.10
2018,06,20,12,53,27.00
2018,06,20,12,54,27.00
2018,06,20,12,55,27.10
2018,06,20,12,56,27.10
2018,06,20,12,57,27.10
2018,06,20,12,58,27.10
2018,06,20,12,59,27.00
2018,06,20,13,00,26.90
2018,06,20,13,01,27.00
2018,06,20,13,02,27.10
2018,06,20,13,03,27.20
2018,06,20,13,04,27.30
2018,06,20,13,05,27.30
2018,06,20,13,06,27.20
2018,06,20,13,07,27.20
2018,06,20,13,08,27.10
2018,06,20,13,09,27.10
2018,06,20,13,10,27.10
2018,06,20,13,11,27.10
2018,06,20,13,12,27.10
2018,06,20,13,13,27.10
2018,06,20,13,14,27.10
2018,06,20,13,15,27.20
2018,06,20,13,16,27.30
2018,06,20,13,17,27.40
2018,06,20,13,18,27.50
2018,06,20,13,19,27.50
2018,06,20,13,20,27.50
2018,06,20,13,21,27.60
2018,06,20,13,22,27.60
2018,06,20,13,23,27.70
2018,06,20,13,24,27.80
2018,06,20,13,25,27.80
2018,06,20,13,26,27.90
2018,06,20,13,27,27.80
2018,06,20,13,28,27.70
2018,06,20,13,29,27.50
2018,06,20,13,30,27.30
2018,06,20,13,31,27.30
2018,06,20,13,32,27.20
2018,06,20,13,33,27.20
2018,06,20,13,34,27.20
2018,06,20,13,35,27.20
2018,06,20,13,36,27.10
2018,06,20,13,37,27.10
2018,06,20,13,38,27.00
2018,06,20,13,39,27.00
2018,06,20,13,40,26.90
2018,06,20,13,41,26.80
2018,06,20,13,42,26.70
2018,06,20,13,43,26.60
2018,06,20,13,44,26.60
2018,06,20,13,45,26.50
2018,06,20,13,46,26.50
2018,06,20,13,47,26.40
2018,06,20,13,48,26.20
2018,06,20,13,49,26.10
2018,06,20,13,50,26.00
2018,06,20,13,51,25.90
2018,06,20,13,52,25.80
2018,06,20,13,53,25.70
2018,06,20,13,54,25.70
2018,06,20,13,55,25.60
2018,06,20,13,56,25.60
2018,06,20,13,57,25.50
2018,06,20,13,58,25.50
2018,06,20,13,59,25.50
2018,06,20,14,00,25.40
2018,06,20,14,01,25.40
2018,06,20,14,02,25.40
2018,06,20,14,03,25.40
2018,06,20,14,04,25.40
2018,06,20,14,05,25.40
2018,06,20,14,06,25.40
2018,06,20,14,07,25.40
2018,06,20,14,08,25.40
2018,06,20,14,09,25.40
2018,06,20,14,10,25.50
2018,06,20,14,11,25.60
2018,06,20,14,12,25.60
2018,06,20,14,13,25.70
2018,06,20,14,14,25.80
2018,06,20,14,15,25.80
2018,06,20,14,16,25.80
2018,06,20,14,17,25.80
2018,06,20,14,18,25.80
2018,06,20,14,19,25.90
2018,06,20,14,20,26.00
2018,06,20,14,21,26.00
2018,06,20,14,22,26.10
2018,06,20,14,23,26.10
2018,06,20,14,24,26.10
2018,06,20,14,25,26.20
2018,06,20,14,26,26.20
2018,06,20,14,27,26.20
2018,06,20,14,28,26.20
2018,06,20,14,29,26.20
2018,06,20,14,30,26.20
2018,06,20,14,31,26.20
2018,06,20,14,32,26.30
2018,06,20,14,33,26.30
2018,06,20,14,34,26.40
2018,06,20,14,35,26.40
2018,06,20,14,36,26.40
2018,06,20,14,37,26.40
2018,06,20,14,38,26.40
2018,06,20,14,39,26.40
2018,06,20,14,40,26.30
2018,06,20,14,41,26.30
2018,06,20,14,42,26.30
2018,06,20,14,43,26.40
2018,06,20,14,44,26.40
2018,06,20,14,45,26.40
2018,06,20,14,46,26.40
2018,06,20,14,47,26.40
2018,06,20,14,48,26.40
2018,06,20,14,49,26.50
2018,06,20,14,50,26.50
2018,06,20,14,51,26.60
2018,06,20,14,52,26.60
2018,06,20,14,53,26.60
2018,06,20,14,54,26.60
2018,06,20,14,55,26.60
2018,06,20,14,56,26.70
2018,06,20,14,57,26.70
2018,06,20,14,58,26.80
2018,06,20,14,59,26.80
2018,06,20,15,00,26.90
2018,06,20,15,01,27.00
2018,06,20,15,02,27.00
2018,06,20,15,03,27.00
2018,06,20,15,04,27.10
2018,06,20,15,05,27.10
2018,06,20,15,06,27.10
2018,06,20,15,07,27.20
2018,06,20,15,08,27.20
2018,06,20,15,09,27.20
2018,06,20,15,10,27.20
2018,06,20,15,11,27.10
2018,06,20,15,12,27.10
2018,06,20,15,13,27.00
2018,06,20,15,14,27.00
2018,06,20,15,15,26.90
2018,06,20,15,16,26.90
2018,06,20,15,17,26.90
2018,06,20,15,18,26.90
2018,06,20,15,19,26.90
2018,06,20,15,20,26.90
2018,06,20,15,21,26.90
2018,06,20,15,22,26.90
2018,06,20,15,23,27.00
2018,06,20,15,24,27.10
2018,06,20,15,25,27.20
2018,06,20,15,26,27.20
2018,06,20,15,27,27.20
2018,06,20,15,28,27.20
2018,06,20,15,29,27.20
2018,06,20,15,30,27.20
2018,06,20,15,31,27.20
2018,06,20,15,32,27.10
2018,06,20,15,33,27.10
2018,06,20,15,34,27.10
2018,06,20,15,35,27.10
2018,06,20,15,36,27.20
2018,06,20,15,37,27.30
2018,06,20,15,38,27.40
2018,06,20,15,39,27.50
2018,06,20,15,40,27.50
2018,06,20,15,41,27.60
2018,06,20,15,42,27.60
2018,06,20,15,43,27.60
2018,06,20,15,44,27.60
2018,06,20,15,45,27.60
2018,06,20,15,46,27.70
2018,06,20,15,47,27.70
2018,06,20,15,48,27.70
2018,06,20,15,49,27.60
2018,06,20,15,50,27.50
2018,06,20,15,51,27.50
2018,06,20,15,52,27.40
2018,06,20,15,53,27.40
2018,06,20,15,54,27.40
2018,06,20,15,55,27.40
2018,06,20,15,56,27.40
2018,06,20,15,57,27.50
2018,06,20,15,58,27.50
2018,06,20,15,59,27.60
2018,06,20,16,00,27.60
2018,06,20,16,01,27.60
2018,06,20,16,02,27.60
2018,06,20,16,03,27.60
2018,06,20,16,04,27.60
2018,06,20,16,05,27.50
2018,06,20,16,06,27.40
2018,06,20,16,07,27.30
2018,06,20,16,08,27.20
2018,06,20,16,09,27.20
2018,06,20,16,10,27.10
2018,06,20,16,11,27.10
2018,06,20,16,12,27.10
2018,06,20,16,13,27.10
2018,06,20,16,14,27.10
2018,06,20,16,15,27.10
2018,06,20,16,16,27.10
2018,06,20,16,17,27.10
2018,06,20,16,18,27.10
2018,06,20,16,19,27.20
2018,06,20,16,20,27.30
2018,06,20,16,21,27.30
2018,06,20,16,22,27.40
2018,06,20,16,23,27.50
2018,06,20,16,24,27.60
2018,06,20,16,25,27.60
2018,06,20,16,26,27.70
2018,06,20,16,27,27.70
2018,06,20,16,28,27.80
2018,06,20,16,29,27.80
2018,06,20,16,30,27.90
2018,06,20,16,31,28.00
2018,06,20,16,32,28.10
2018,06,20,16,33,28.20
2018,06,20,16,34,28.30
2018,06,20,16,35,28.50
2018,06,20,16,36,28.60
2018,06,20,16,37,28.70
2018,06,20,16,38,28.80
2018,06,20,16,39,28.80
2018,06,20,16,40,28.80
2018,06,20,16,41,28.80
2018,06,20,16,42,28.80
2018,06,20,16,43,28.90
2018,06,20,16,44,28.90
2018,06,20,16,45,28.90
2018,06,20,16,46,29.00
2018,06,20,16,47,29.00
2018,06,20,16,48,29.10
2018,06,20,16,49,29.20
2018,06,20,16,50,29.20
2018,06,20,16,51,29.20
2018,06,20,16,52,29.10
2018,06,20,16,53,29.10
2018,06,20,16,54,29.10
2018,06,20,16,55,29.10
2018,06,20,16,56,29.10
2018,06,20,16,57,29.10
2018,06,20,16,58,29.10
2018,06,20,16,59,29.10
2018,06,20,17,00,29.10
2018,06,20,17,01,29.10
2018,06,20,17,02,29.10
2018,06,20,17,03,29.10
2018,06,20,17,04,29.10
2018,06,20,17,05,29.20
2018,06,20,17,06,29.20
2018,06,20,17,07,29.30
2018,06,20,17,08,29.40
2018,06,20,17,09,29.40
2018,06,20,17,10,29.50
2018,06,20,17,11,29.60
2018,06,20,17,12,29.70
2018,06,20,17,13,29.80
2018,06,20,17,14,29.80
2018,06,20,17,15,29.90
2018,06,20,17,16,29.90
2018,06,20,17,17,30.00
2018,06,20,17,18,30.00
2018,06,20,17,19,30.00